TimeMST,TemperatureF,Dew PointF,Humidity,Sea Level PressureIn,VisibilityMPH,Wind Direction,Wind SpeedMPH,Gust SpeedMPH,PrecipitationIn,Events,Conditions,WindDirDegrees,DateUTC
12:53 AM,28.9,25.0,85,29.93,9.0,SE,8.1,-,N/A,,Clear,130,2014-03-04 07:53:00
1:53 AM,30.9,26.1,82,29.90,10.0,South,5.8,-,N/A,,Clear,190,2014-03-04 08:53:00
2:53 AM,37.0,27.0,67,29.84,10.0,WSW,5.8,-,N/A,,Clear,250,2014-03-04 09:53:00
3:53 AM,30.9,25.0,79,29.85,10.0,Calm,Calm,-,N/A,,Clear,0,2014-03-04 10:53:00
4:53 AM,39.9,28.0,63,29.83,10.0,WSW,8.1,-,N/A,,Clear,250,2014-03-04 11:53:00
5:53 AM,42.1,28.9,60,29.83,10.0,WNW,5.8,-,N/A,,Clear,290,2014-03-04 12:53:00
6:53 AM,37.0,28.0,70,29.84,10.0,South,5.8,-,N/A,,Clear,170,2014-03-04 13:53:00
7:53 AM,45.0,28.9,53,29.83,10.0,West,11.5,-,N/A,,Clear,280,2014-03-04 14:53:00
8:53 AM,46.0,30.9,56,29.83,10.0,West,8.1,-,N/A,,Clear,270,2014-03-04 15:53:00
9:53 AM,48.9,30.9,50,29.84,10.0,West,6.9,16.1,N/A,,Clear,270,2014-03-04 16:53:00
10:53 AM,46.9,32.0,56,29.85,10.0,North,8.1,-,N/A,,Clear,350,2014-03-04 17:53:00
11:53 AM,45.0,33.1,63,29.88,10.0,North,11.5,-,N/A,,Clear,350,2014-03-04 18:53:00
12:53 PM,46.9,34.0,61,29.88,10.0,NNW,11.5,-,N/A,,Clear,340,2014-03-04 19:53:00
1:53 PM,46.0,33.1,61,29.87,10.0,NNW,15.0,-,N/A,,Clear,330,2014-03-04 20:53:00
2:53 PM,44.1,35.1,71,29.86,10.0,NNW,9.2,-,N/A,,Overcast,340,2014-03-04 21:53:00
3:53 PM,44.1,34.0,68,29.89,10.0,NNW,5.8,-,0.00,,Mostly Cloudy,330,2014-03-04 22:53:00
4:53 PM,43.0,35.1,74,29.89,10.0,Calm,Calm,-,N/A,,Mostly Cloudy,0,2014-03-04 23:53:00
5:53 PM,39.9,33.1,77,29.92,10.0,NNW,4.6,-,N/A,,Clear,340,2014-03-05 00:53:00
6:53 PM,37.0,32.0,82,29.98,10.0,NNW,6.9,-,N/A,,Clear,340,2014-03-05 01:53:00
7:53 PM,37.9,32.0,79,29.97,10.0,NNW,6.9,-,N/A,,Clear,330,2014-03-05 02:53:00
8:53 PM,37.0,30.0,76,30.01,10.0,WNW,5.8,-,N/A,,Clear,290,2014-03-05 03:53:00
9:53 PM,34.0,30.9,89,30.03,10.0,West,4.6,-,N/A,,Clear,280,2014-03-05 04:53:00
10:53 PM,35.1,30.0,82,30.05,10.0,NNW,4.6,-,N/A,,Partly Cloudy,340,2014-03-05 05:53:00
11:53 PM,33.1,30.0,89,30.07,10.0,NE,3.5,-,N/A,,Partly Cloudy,40,2014-03-05 06:53:00